FW0954 Weather Reports


time (UTC)temp
C
wind
direction
speed
KPH
gust
KPH
rain 1hr
cm
rain 24hr
cm
rain mn
cm
humidity
%
barometer
mb
20260903041501 27 83 3.2 14.5 0.00 0.00 0.00 76 1013.6
20260903040001 28 81 1.6 11.3 0.00 0.00 0.00 76 1013.8
20260903035501 28 82 1.6 11.3 0.00 0.00 0.00 76 1013.7
20260903035002 28 91 1.6 11.3 0.00 0.00 0.00 75 1013.8
20260903034501 28 111 1.6 9.7 0.00 0.00 0.00 75 1013.7
20260903034001 28 114 1.6 6.4 0.00 0.00 0.00 75 1013.7
20260903033501 28 94 1.6 9.7 0.00 0.00 0.00 74 1013.7
20260903033002 28 90 1.6 9.7 0.00 0.00 0.00 74 1013.5
20260903032501 28 97 1.6 9.7 0.00 0.00 0.00 74 1013.6
20260903032001 28 90 1.6 9.7 0.00 0.00 0.00 74 1013.6
20260903031501 28 83 1.6 9.7 0.00 0.00 0.00 73 1013.5
20260903031002 28 85 1.6 9.7 0.00 0.00 0.00 73 1013.4
20260903030502 28 90 1.6 8.0 0.00 0.00 0.00 72 1013.5
20260903030001 29 90 1.6 8.0 0.00 0.00 0.00 72 1013.5
20260903025501 29 90 3.2 8.0 0.00 0.00 0.00 71 1013.5
20260903025001 29 87 1.6 9.7 0.00 0.00 0.00 71 1013.5
20260903024502 29 90 3.2 9.7 0.00 0.00 0.00 70 1013.5
20260903023502 30 103 3.2 14.5 0.00 0.00 0.00 69 1013.4
20260903023001 30 104 3.2 16.1 0.00 0.00 0.00 69 1013.3
20260903022501 30 103 4.8 16.1 0.00 0.00 0.00 68 1013.4
20260903022001 30 109 3.2 12.9 0.00 0.00 0.00 68 1013.4
20260903021501 30 115 3.2 12.9 0.00 0.00 0.00 68 1013.2
20260903021001 30 109 3.2 12.9 0.00 0.00 0.00 68 1013.2
20260903020501 30 110 3.2 9.7 0.00 0.00 0.00 67 1013.1
20260903020001 31 110 3.2 14.5 0.00 0.00 0.00 67 1013.0
20260903015502 31 107 3.2 16.1 0.00 0.00 0.00 66 1012.9
20260903015002 31 103 3.2 16.1 0.00 0.00 0.00 65 1012.9
20260903014501 31 100 1.6 8.0 0.00 0.00 0.00 65 1012.8
20260903014001 31 116 1.6 8.0 0.00 0.00 0.00 66 1012.5
20260903013502 31 117 1.6 8.0 0.00 0.00 0.00 65 1012.4
20260903013002 32 96 1.6 8.0 0.00 0.00 0.00 64 1012.3
20260903012502 32 93 1.6 12.9 0.00 0.00 0.00 63 1012.3
20260903012002 32 93 1.6 12.9 0.00 0.00 0.00 63 1012.1
20260903011002 32 81 1.6 9.7 0.00 0.00 0.00 60 1012.0
20260903010502 32 85 1.6 6.4 0.00 0.00 0.00 59 1012.0
20260903010002 33 97 1.6 11.3 0.00 0.00 0.00 58 1011.9
20260903005002 33 90 1.6 11.3 0.00 0.00 0.00 57 1011.8
20260903004502 33 85 1.6 8.0 0.00 0.00 0.00 57 1011.9
20260903004002 33 79 1.6 6.4 0.00 0.00 0.00 58 1011.9
20260903003502 33 90 0.0 4.8 0.00 0.00 0.00 58 1011.8
20260903003002 33 92 1.6 9.7 0.00 0.00 0.00 58 1011.7
20260903002502 33 94 1.6 9.7 0.00 0.00 0.00 58 1011.7
20260903002002 33 91 1.6 4.8 0.00 0.00 0.00 58 1011.6
20260903001001 33 90 0.0 4.8 0.00 0.00 0.00 58 1011.5
20260903000002 34 91 0.0 4.8 0.00 0.00 0.00 57 1011.6
20260902235501 34 93 0.0 6.4 0.00 0.00 0.00 56 1011.5
20260902234002 34 84 1.6 8.0 0.00 0.00 0.00 56 1011.5
20260902233502 35 91 1.6 9.7 0.00 0.00 0.00 56 1011.5
20260902232501 35 88 1.6 6.4 0.00 0.00 0.00 55 1011.4
20260902232002 35 96 1.6 6.4 0.00 0.00 0.00 55 1011.5
20260902231502 35 101 1.6 6.4 0.00 0.00 0.00 55 1011.5
20260902231002 35 99 1.6 8.0 0.00 0.00 0.00 54 1011.5
20260902230502 35 100 1.6 8.0 0.00 0.00 0.00 55 1011.6
20260902230002 35 94 1.6 6.4 0.00 0.00 0.00 55 1011.5
20260902225501 35 92 0.0 4.8 0.00 0.00 0.00 54 1011.4
20260902225001 35 90 0.0 6.4 0.00 0.00 0.00 52 1011.4
20260902224501 36 87 1.6 6.4 0.00 0.00 0.00 52 1011.4
20260902224002 36 84 1.6 8.0 0.00 0.00 0.00 53 1011.3
20260902223502 36 81 1.6 8.0 0.00 0.00 0.00 52 1011.2
20260902223002 37 82 1.6 8.0 0.00 0.00 0.00 52 1011.3
20260902222002 38 92 0.0 6.4 0.00 0.00 0.00 48 1011.2
20260902221502 38 108 1.6 9.7 0.00 0.00 0.00 47 1011.1
20260902221002 38 105 1.6 11.3 0.00 0.00 0.00 47 1011.1
20260902220502 38 95 1.6 11.3 0.00 0.00 0.00 46 1011.3
20260902220002 38 104 1.6 9.7 0.00 0.00 0.00 47 1011.2
20260902215502 38 112 1.6 4.8 0.00 0.00 0.00 48 1011.2
20260902215001 38 118 0.0 4.8 0.00 0.00 0.00 47 1011.3
20260902214502 38 118 0.0 4.8 0.00 0.00 0.00 46 1011.3
20260902214001 38 97 1.6 4.8 0.00 0.00 0.00 46 1011.5
20260902213502 38 91 1.6 6.4 0.00 0.00 0.00 47 1011.5
20260902213002 38 103 1.6 6.4 0.00 0.00 0.00 47 1011.6
20260902212501 38 92 1.6 6.4 0.00 0.00 0.00 46 1011.6
20260902212002 38 89 1.6 8.0 0.00 0.00 0.00 47 1011.7
20260902211502 38 91 1.6 8.0 0.00 0.00 0.00 47 1011.7
20260902211002 38 84 0.0 6.4 0.00 0.00 0.00 48 1011.7
20260902210502 38 116 1.6 6.4 0.00 0.00 0.00 48 1011.8
20260902205502 38 105 1.6 6.4 0.00 0.00 0.00 47 1011.8
20260902205002 38 102 1.6 6.4 0.00 0.00 0.00 47 1011.8
20260902204002 38 110 1.6 9.7 0.00 0.00 0.00 48 1012.0
20260902203002 38 110 0.0 3.2 0.00 0.00 0.00 47 1012.2
20260902202503 38 53 0.0 1.6 0.00 0.00 0.00 47 1012.5
20260902202002 37 72 0.0 4.8 0.00 0.00 0.00 48 1012.4
20260902201502 37 94 1.6 6.4 0.00 0.00 0.00 48 1012.6
20260902201002 37 99 1.6 6.4 0.00 0.00 0.00 48 1012.6
20260902200502 37 103 1.6 8.0 0.00 0.00 0.00 47 1012.8
20260902200003 38 107 1.6 8.0 0.00 0.00 0.00 47 1013.0
20260902195502 38 128 1.6 8.0 0.00 0.00 0.00 47 1013.1
20260902195002 38 118 1.6 8.0 0.00 0.00 0.00 47 1013.1
20260902194001 38 144 0.0 4.8 0.00 0.00 0.00 47 1013.3
20260902193502 38 270 1.6 4.8 0.00 0.00 0.00 47 1013.3
20260902193002 37 49 1.6 6.4 0.00 0.00 0.00 49 1013.3
20260902191002 37 125 1.6 11.3 0.00 0.00 0.00 48 1013.7
20260902190502 37 120 1.6 11.3 0.00 0.00 0.00 47 1013.7
20260902190002 37 99 1.6 8.0 0.00 0.00 0.00 48 1013.8
20260902185502 37 103 1.6 8.0 0.00 0.00 0.00 49 1013.9
20260902185002 37 98 1.6 4.8 0.00 0.00 0.00 50 1013.9
20260902184502 37 117 1.6 6.4 0.00 0.00 0.00 50 1014.0
20260902183503 37 80 1.6 6.4 0.00 0.00 0.00 50 1014.1
20260902183002 36 97 1.6 6.4 0.00 0.00 0.00 50 1014.3
20260902182502 36 110 1.6 4.8 0.00 0.00 0.00 51 1014.3
20260902182002 36 94 1.6 6.4 0.00 0.00 0.00 52 1014.4
20260902181502 36 88 1.6 6.4 0.00 0.00 0.00 53 1014.6
20260902181002 36 83 1.6 6.4 0.00 0.00 0.00 53 1014.8
20260902180502 36 90 1.6 8.0 0.00 0.00 0.00 54 1014.9
20260902180005 36 94 1.6 8.0 0.00 0.00 0.00 54 1015.0
20260902175502 36 98 0.0 4.8 0.00 0.00 0.00 55 1015.3
20260902175002 36 106 0.0 4.8 0.00 0.00 0.00 55 1015.3
20260902174502 35 82 0.0 1.6 0.00 0.00 0.00 57 1015.4
20260902173002 35 328 0.0 4.8 0.00 0.00 0.00 58 1015.5
20260902172502 35 74 0.0 1.6 0.00 0.00 0.00 59 1015.5
20260902172002 35 109 0.0 4.8 0.00 0.00 0.00 59 1015.6
20260902171502 34 122 0.0 4.8 0.00 0.00 0.00 60 1015.7
20260902171002 34 14 0.0 3.2 0.00 0.00 0.00 61 1015.9
20260902170503 33 344 0.0 3.2 0.00 0.00 0.00 62 1015.9
20260902170002 33 345 0.0 4.8 0.00 0.00 0.00 62 1016.0
20260902165003 33 20 0.0 3.2 0.00 0.00 0.00 62 1016.1
20260902164502 34 160 0.0 4.8 0.00 0.00 0.00 62 1016.2
20260902164002 33 175 1.6 6.4 0.00 0.00 0.00 64 1016.3
20260902163502 33 151 0.0 6.4 0.00 0.00 0.00 64 1016.4
20260902163002 33 95 0.0 3.2 0.00 0.00 0.00 63 1016.4
20260902162503 33 164 0.0 4.8 0.00 0.00 0.00 64 1016.4
20260902162002 33 167 1.6 4.8 0.00 0.00 0.00 64 1016.3
20260902161503 32 166 1.6 4.8 0.00 0.00 0.00 65 1016.3
20260902161002 32 179 1.6 6.4 0.00 0.00 0.00 66 1016.4
20260902160502 32 166 0.0 6.4 0.00 0.00 0.00 66 1016.4
20260902160003 32 129 0.0 4.8 0.00 0.00 0.00 68 1016.3
20260902155502 32 159 0.0 3.2 0.00 0.00 0.00 68 1016.4
20260902155003 32 165 0.0 3.2 0.00 0.00 0.00 69 1016.4
20260902154503 31 120 0.0 3.2 0.00 0.00 0.00 71 1016.4
20260902154002 31 106 0.0 3.2 0.00 0.00 0.00 70 1016.4
20260902153502 31 98 0.0 3.2 0.00 0.00 0.00 70 1016.4
20260902153003 31 80 0.0 3.2 0.00 0.00 0.00 70 1016.4
20260902152502 31 83 0.0 3.2 0.00 0.00 0.00 71 1016.5
20260902151503 31 109 0.0 6.4 0.00 0.00 0.00 72 1016.4
20260902151003 31 95 0.0 6.4 0.00 0.00 0.00 72 1016.3
20260902150503 31 122 0.0 6.4 0.00 0.00 0.00 72 1016.4
20260902150002 30 124 1.6 6.4 0.00 0.00 0.00 72 1016.3
20260902145502 30 92 1.6 4.8 0.00 0.00 0.00 73 1016.3
20260902144002 30 116 0.0 4.8 0.00 0.00 0.00 73 1016.3
20260902143502 30 135 0.0 4.8 0.00 0.00 0.00 74 1016.3
20260902143003 30 88 0.0 6.4 0.00 0.00 0.00 74 1016.3
20260902142003 30 122 0.0 3.2 0.00 0.00 0.00 75 1016.3
20260902141502 30 116 0.0 4.8 0.00 0.00 0.00 75 1016.2
20260902141003 30 119 0.0 4.8 0.00 0.00 0.00 76 1016.2
20260902140502 29 170 0.0 4.8 0.00 0.00 0.00 76 1016.2
20260902140003 28 171 0.0 4.8 0.00 0.00 0.00 77 1016.1
20260902135003 28 140 0.0 1.6 0.00 0.00 0.00 78 1016.2
20260902134502 28 141 0.0 1.6 0.00 0.00 0.00 79 1016.1
20260902134003 27 133 0.0 1.6 0.00 0.00 0.00 80 1016.0
20260902133502 27 115 0.0 1.6 0.00 0.00 0.00 81 1015.9
20260902133003 27 128 0.0 3.2 0.00 0.00 0.00 81 1016.0
20260902132503 26 135 0.0 3.2 0.00 0.00 0.00 81 1015.9
20260902132003 26 96 0.0 3.2 0.00 0.00 0.00 82 1016.0
20260902131502 26 79 0.0 4.8 0.00 0.00 0.00 82 1016.0
20260902131003 26 68 0.0 4.8 0.00 0.00 0.00 83 1015.9
20260902130502 26 100 0.0 3.2 0.00 0.00 0.00 84 1015.9
20260902130003 26 149 0.0 3.2 0.00 0.00 0.00 84 1015.9
20260902125502 26 134 0.0 3.2 0.00 0.00 0.00 85 1015.9
20260902125003 26 107 0.0 3.2 0.00 0.00 0.00 85 1015.9
20260902124002 25 106 0.0 3.2 0.00 0.00 0.00 85 1016.0
20260902123503 25 114 0.0 3.2 0.00 0.00 0.00 86 1015.8
20260902123003 25 137 0.0 1.6 0.00 0.00 0.00 86 1015.8
20260902122502 25 137 0.0 1.6 0.00 0.00 0.00 86 1015.7
20260902122003 25 137 0.0 1.6 0.00 0.00 0.00 86 1015.8
20260902121503 25 0 0.0 0.0 0.00 0.00 0.00 86 1015.8
20260902120503 25 0 0.0 0.0 0.00 0.00 0.00 86 1015.8
20260902120003 25 0 0.0 0.0 0.00 0.00 0.00 86 1015.7
20260902115503 25 0 0.0 0.0 0.00 0.00 0.00 86 1015.7
20260902115003 25 0 0.0 0.0 0.00 0.00 0.00 86 1015.6
20260902114502 25 0 0.0 0.0 0.00 0.00 0.00 86 1015.6
20260902114003 25 166 0.0 1.6 0.00 0.00 0.00 87 1015.6
20260902113003 25 0 0.0 0.0 0.00 0.00 0.00 87 1015.8
20260902112503 25 0 0.0 0.0 0.00 0.00 0.00 87 1015.8
20260902112003 25 0 0.0 0.0 0.00 0.00 0.00 87 1015.7
20260902111503 25 0 0.0 0.0 0.00 0.00 0.00 86 1015.7
20260902111003 25 0 0.0 0.0 0.00 0.00 0.00 86 1015.7
20260902110503 25 0 0.0 0.0 0.00 0.00 0.00 86 1015.6
20260902105503 25 0 0.0 0.0 0.00 0.00 0.00 86 1015.7
20260902105003 25 0 0.0 0.0 0.00 0.00 0.00 85 1015.7
20260902104504 25 0 0.0 0.0 0.00 0.00 0.00 85 1015.6
20260902104003 25 0 0.0 0.0 0.00 0.00 0.00 85 1015.5
20260902103503 25 0 0.0 0.0 0.00 0.00 0.00 85 1015.5
20260902103003 25 0 0.0 0.0 0.00 0.00 0.00 84 1015.6
20260902102503 25 0 0.0 0.0 0.00 0.00 0.00 84 1015.6
20260902102003 25 0 0.0 0.0 0.00 0.00 0.00 84 1015.6
20260902101003 25 0 0.0 0.0 0.00 0.00 0.00 84 1015.6
20260902100503 25 0 0.0 0.0 0.00 0.00 0.00 84 1015.6
20260902100003 25 0 0.0 0.0 0.00 0.00 0.00 84 1015.6
20260902095002 25 0 0.0 0.0 0.00 0.00 0.00 83 1015.6
20260902094503 25 0 0.0 0.0 0.00 0.00 0.00 83 1015.6
20260902093503 25 0 0.0 0.0 0.00 0.00 0.00 83 1015.5
20260902093003 25 0 0.0 0.0 0.00 0.00 0.00 82 1015.5
20260902092502 25 0 0.0 0.0 0.00 0.00 0.00 82 1015.5
20260902092003 25 0 0.0 0.0 0.00 0.00 0.00 82 1015.4
20260902091503 25 0 0.0 0.0 0.00 0.00 0.00 82 1015.4
20260902091003 26 0 0.0 0.0 0.00 0.00 0.00 82 1015.4
20260902090503 26 0 0.0 0.0 0.00 0.00 0.00 82 1015.4
20260902090004 26 0 0.0 0.0 0.00 0.00 0.00 81 1015.4
20260902085503 26 0 0.0 0.0 0.00 0.00 0.00 80 1015.3
20260902085003 26 0 0.0 0.0 0.00 0.00 0.00 80 1015.3
20260902084503 26 0 0.0 0.0 0.00 0.00 0.00 80 1015.3
20260902083503 26 0 0.0 0.0 0.00 0.00 0.00 80 1015.3
20260902083003 26 0 0.0 0.0 0.00 0.00 0.00 79 1015.3
20260902082503 26 0 0.0 0.0 0.00 0.00 0.00 79 1015.4
20260902081503 26 0 0.0 0.0 0.00 0.00 0.00 79 1015.3
20260902080504 27 167 0.0 3.2 0.00 0.00 0.00 79 1015.3
20260902080003 27 163 0.0 3.2 0.00 0.00 0.00 79 1015.3
20260902075003 27 182 0.0 1.6 0.00 0.00 0.00 79 1015.4
20260902074503 27 182 0.0 1.6 0.00 0.00 0.00 79 1015.4
20260902074003 27 182 0.0 1.6 0.00 0.00 0.00 79 1015.4
20260902073504 27 182 0.0 1.6 0.00 0.00 0.00 79 1015.4
20260902073003 27 182 0.0 1.6 0.00 0.00 0.00 79 1015.3
20260902072503 27 0 0.0 0.0 0.00 0.00 0.00 79 1015.5
20260902072003 27 182 0.0 1.6 0.00 0.00 0.00 78 1015.5
20260902071503 27 182 0.0 3.2 0.00 0.00 0.00 78 1015.4
20260902070504 27 182 0.0 1.6 0.00 0.00 0.00 78 1015.5
20260902065503 27 0 0.0 0.0 0.00 0.00 0.00 77 1015.6
20260902064503 27 182 0.0 3.2 0.00 0.00 0.00 77 1015.6
20260902064003 27 182 0.0 3.2 0.00 0.00 0.00 77 1015.6
20260902063504 27 182 0.0 1.6 0.00 0.00 0.00 76 1015.5
20260902063003 28 179 0.0 3.2 0.00 0.00 0.00 76 1015.5
20260902062503 28 175 0.0 3.2 0.00 0.00 0.00 76 1015.5
20260902062004 28 178 0.0 6.4 0.00 0.00 0.00 76 1015.4
20260902061003 28 176 0.0 3.2 0.00 0.00 0.00 75 1015.5
20260902060503 28 173 0.0 3.2 0.00 0.00 0.00 75 1015.4
20260902060003 28 174 0.0 3.2 0.00 0.00 0.00 75 1015.4
20260902055503 28 171 0.0 3.2 0.00 0.00 0.00 74 1015.5
20260902055004 28 176 0.0 4.8 0.00 0.00 0.00 74 1015.4
20260902054503 28 181 1.6 4.8 0.00 0.00 0.00 74 1015.5
20260902054003 28 182 1.6 4.8 0.00 0.00 0.00 74 1015.5
20260902053504 28 177 1.6 6.4 0.00 0.00 0.00 73 1015.4
20260902053003 28 176 1.6 6.4 0.00 0.00 0.00 73 1015.4
20260902052502 28 174 1.6 6.4 0.00 0.00 0.00 73 1015.4
20260902052001 28 175 1.6 4.8 0.00 0.00 0.00 73 1015.4
20260902051501 29 191 0.0 6.4 0.00 0.00 0.00 72 1015.3
20260902050501 29 195 0.0 3.2 0.00 0.00 0.00 72 1015.4
20260902050004 29 173 0.0 3.2 0.00 0.00 0.00 71 1015.5
20260902045002 30 168 1.6 8.0 0.00 0.00 0.00 71 1015.4
20260902044501 30 173 1.6 8.0 0.00 0.00 0.00 70 1015.3
20260902044001 30 177 1.6 6.4 0.00 0.00 0.00 70 1015.3
20260902043501 30 181 1.6 6.4 0.00 0.00 0.00 70 1015.3
20260902043001 30 173 1.6 6.4 0.00 0.00 0.00 69 1015.3
20260902042502 30 172 1.6 6.4 0.00 0.00 0.00 69 1015.3
20260902042001 30 181 1.6 9.7 0.00 0.00 0.00 69 1015.3